Location: Newark
(48.8833°N, 0.9236°W)
Time: 20:01:22
(UTC+00:00)

Tiros 1 despin weight - Pass Details

Date: 18 November 2019
Orbit: 594 x 642 km, 48.2° (Epoch: 06 December)

Event Time Altitude Azimuth Distance (km) Brightness Sun altitude
Rises 19:00:50 0° 283° (WNW) 2,857 ? -26.1°
Reaches altitude 10° 19:03:18 10° 273° (W) 1,958 ? -26.5°
Maximum altitude 19:07:15 31° 211° (SSW) 1,082 ? -27.2°
Enters shadow 19:07:31 31° 204° (SSW) 1,088 ? -27.2°
Drops below altitude 10° 19:11:15 10° 149° (SSE) 1,978 - -27.9°
Sets 19:13:46 0° 139° (SE) 2,890 - -28.3°
